Location: Barrow Cemetery
(35.4640°N, 90.0870°W)
Time: 10:21:20
(UTC+00:00)

ISS - Visible Passes

Search period start: 23 June 2024 00:00
Search period end: 03 July 2024 00:00
Orbit: 410 x 425 km, 51.6° (Epoch: 23 June)

Date Brightness Start Highest point End Pass type
(mag) Time Alt. Az. Time Alt. Az. Time Alt. Az.
23 Jun -0.8 08:00:01 11° E 08:00:01 11° E 08:00:19 10° E visible
23 Jun -3.0 09:32:57 20° WSW 09:34:52 44° NW 09:38:05 10° NE visible
24 Jun -3.9 08:46:40 81° W 08:46:46 83° NW 08:50:07 10° NE visible
25 Jun -1.7 08:00:19 25° ENE 08:00:19 25° ENE 08:01:56 10° ENE visible
25 Jun -1.5 09:33:18 10° WNW 09:35:40 18° NNW 09:38:02 10° NNE visible
26 Jun -2.2 08:46:47 25° NW 08:47:21 27° NW 08:50:16 10° NNE visible
27 Jun -1.9 08:00:16 31° NNE 08:00:16 31° NNE 08:02:19 10° NE visible
28 Jun -0.7 07:13:40 14° NE 07:13:40 14° NE 07:14:12 10° NE visible
28 Jun -1.0 08:46:34 10° NW 08:48:03 13° NNW 08:49:41 10° N visible
29 Jun -1.3 07:59:53 18° NNW 07:59:53 18° NNW 08:02:02 10° NNE visible
30 Jun -0.7 07:13:08 16° NNE 07:13:08 16° NNE 07:14:07 10° NNE visible
02 Jul -0.6 07:12:17 13° NNW 07:12:17 13° NNW 07:13:18 10° N visible
